钟子号卫星1组 04星 (NINGXIA-1 4)

导读 | 豆包AI

NINGXIA-1 4是中国宁夏金汇信息技术有限公司拥有、中国航天科技集团东方红卫星有限公司研制的一颗商业信号情报卫星,属于宁夏一号(也叫钟子号)卫星星座,该卫星于北京时间2019年11月13日8时,由长征六号运载火箭在太原卫星发射中心发射入轨,主要用于全球电磁频谱信号监测,支撑商业遥感与频谱管控应用,是中国商业航天信号监测领域布局的重要组成部分。

基本信息
目录编号:
44782
目录名称:
NINGXIA-1 4
国际标识:
2019-076D
轨道中心:
EARTH
卫星名称:
钟子号卫星1组 04星
卫星全名:
钟子号卫星1组 04星 (NINGXIA-1 4)
卫星状态:
在轨 (已飞行2334 天)
发射日期:
2019-11-13 UTC
国别 :
中国 (CN)
星等 :
--
轨道信息
数据来源 国际轨道数据 AOE轨道数据
星历时间 2026-04-03T22:27:10+0800
10小时前
查看轨道信息
2026-04-03T06:00:00+0800
1天前
查看轨道信息
半长轴 7264.806km 7264.805km
偏心率 0.0012247 0.0012163
轨道倾角 45.008° 45.008°
近地点辐角 136.041° 132.520°
升交点赤经 153.135° 156.200°
平近点角 224.140° 4.265°
近地点 877.771km 877.831km
远地点 895.567km 895.505km
周期 102.706分钟 102.706分钟
每日圈数 14.020605 14.02061
详细信息
平衡模式:
三轴稳定
覆盖范围:
全球
运营商:
夏威夷科学技术博物馆
运营商所在国:
美国
制造商(研发单位):
中国东方红卫星股份有限公司
制造商所在国:
中国
使用方式:
暂无
卫星简介
钟子号卫星星座(Zhongzi)是由宁夏金硅信息技术有限公司自主投资建设的商业航天项目,卫星由五院所属航天东方红卫星有限公司抓总研制,主要应用于遥感探测等领域。该卫星仍在工作。
2D轨道图
3D轨道图
轨道高度分析图
轨道倾角分析图
轨道综合分析图
查看轨道综合分析图